Time,TemperatureF,DewpointF,PressureIn,WindDirection,WindDirectionDegrees,WindSpeedMPH,WindSpeedGustMPH,Humidity,HourlyPrecipIn,Conditions,Clouds,dailyrainin,SoftwareType,DateUTC
2013-02-26 00:02:00,53.0,40.0,29.47,WSW,244,12.0,29.0,62,0.00,,,1.12,,2013-02-26 06:02:00,
2013-02-26 00:11:00,53.0,40.0,29.47,WSW,244,12.0,29.0,62,0.00,,,1.12,,2013-02-26 06:11:00,
2013-02-26 00:21:00,52.0,39.0,29.48,WSW,257,13.0,24.0,61,0.00,,,1.12,,2013-02-26 06:21:00,
2013-02-26 00:32:00,51.0,39.0,29.49,WSW,246,9.0,21.0,63,0.00,,,1.12,,2013-02-26 06:32:00,
2013-02-26 00:41:00,51.0,39.0,29.49,WSW,246,9.0,21.0,63,0.00,,,1.12,,2013-02-26 06:41:00,
2013-02-26 00:51:00,50.0,38.0,29.49,SW,234,9.0,16.0,64,0.00,,,1.12,,2013-02-26 06:51:00,
2013-02-26 01:01:00,49.0,37.0,29.49,WSW,250,11.0,19.0,62,0.00,,,1.12,,2013-02-26 07:01:00,
2013-02-26 01:11:00,49.0,37.0,29.49,WSW,250,11.0,19.0,62,0.00,,,1.12,,2013-02-26 07:11:00,
2013-02-26 01:22:00,49.0,37.0,29.50,West,266,14.0,22.0,62,0.00,,,1.12,,2013-02-26 07:22:00,
2013-02-26 01:32:00,48.0,36.0,29.50,SW,235,13.0,21.0,64,0.00,,,1.12,,2013-02-26 07:32:00,
2013-02-26 01:41:00,48.0,36.0,29.50,SW,235,13.0,21.0,64,0.00,,,1.12,,2013-02-26 07:41:00,
2013-02-26 01:51:00,48.0,36.0,29.51,WSW,250,12.0,22.0,64,0.00,,,1.12,,2013-02-26 07:51:00,
2013-02-26 02:02:00,47.0,36.0,29.51,SW,232,12.0,20.0,65,0.00,,,1.12,,2013-02-26 08:02:00,
2013-02-26 02:11:00,47.0,36.0,29.51,SW,232,12.0,20.0,65,0.00,,,1.12,,2013-02-26 08:11:00,
2013-02-26 02:21:00,47.0,36.0,29.51,WSW,237,13.0,18.0,66,0.00,,,1.12,,2013-02-26 08:21:00,
2013-02-26 02:31:00,46.0,36.0,29.51,WSW,251,13.0,19.0,67,0.00,,,1.12,,2013-02-26 08:31:00,
2013-02-26 02:42:00,46.0,36.0,29.51,WSW,251,13.0,19.0,67,0.00,,,1.12,,2013-02-26 08:42:00,
2013-02-26 02:52:00,46.0,36.0,29.52,WSW,240,11.0,18.0,67,0.00,,,1.12,,2013-02-26 08:52:00,
2013-02-26 03:02:00,46.0,36.0,29.52,SW,234,11.0,20.0,68,0.00,,,1.12,,2013-02-26 09:02:00,
2013-02-26 03:11:00,46.0,36.0,29.52,SW,234,11.0,20.0,68,0.00,,,1.12,,2013-02-26 09:11:00,
2013-02-26 03:21:00,46.0,36.0,29.52,SW,234,12.0,18.0,68,0.00,,,1.12,,2013-02-26 09:21:00,
2013-02-26 03:32:00,46.0,36.0,29.52,WSW,245,15.0,22.0,67,0.00,,,1.12,,2013-02-26 09:32:00,
2013-02-26 03:43:00,46.0,36.0,29.52,WSW,245,15.0,22.0,67,0.00,,,1.12,,2013-02-26 09:43:00,
2013-02-26 03:51:00,46.0,36.0,29.52,WSW,245,15.0,22.0,67,0.00,,,1.12,,2013-02-26 09:51:00,
2013-02-26 04:01:00,46.0,36.0,29.52,WSW,252,14.0,20.0,68,0.00,,,1.12,,2013-02-26 10:01:00,
2013-02-26 04:11:00,46.0,36.0,29.52,WSW,252,14.0,20.0,68,0.00,,,1.12,,2013-02-26 10:11:00,
2013-02-26 04:21:00,46.0,37.0,29.53,WSW,247,11.0,22.0,70,0.00,,,1.12,,2013-02-26 10:21:00,
2013-02-26 04:31:00,45.0,35.0,29.53,West,263,15.0,25.0,69,0.00,,,1.12,,2013-02-26 10:31:00,
2013-02-26 04:41:00,45.0,35.0,29.53,West,263,15.0,25.0,69,0.00,,,1.12,,2013-02-26 10:41:00,
2013-02-26 04:52:00,45.0,36.0,29.53,WSW,246,12.0,22.0,70,0.00,,,1.12,,2013-02-26 10:52:00,
2013-02-26 05:01:00,45.0,36.0,29.53,West,267,14.0,21.0,71,0.00,,,1.12,,2013-02-26 11:01:00,
2013-02-26 05:12:00,45.0,36.0,29.53,West,267,14.0,21.0,71,0.00,,,1.12,,2013-02-26 11:12:00,
2013-02-26 05:21:00,45.0,36.0,29.54,SW,230,12.0,23.0,71,0.00,,,1.12,,2013-02-26 11:21:00,
2013-02-26 05:32:00,45.0,37.0,29.54,WSW,254,13.0,19.0,72,0.00,,,1.12,,2013-02-26 11:32:00,
2013-02-26 05:42:00,45.0,37.0,29.54,WSW,254,13.0,19.0,72,0.00,,,1.12,,2013-02-26 11:42:00,
2013-02-26 05:52:00,45.0,37.0,29.54,WSW,250,14.0,19.0,72,0.00,,,1.12,,2013-02-26 11:52:00,
2013-02-26 06:01:00,44.0,36.0,29.55,SW,229,11.0,22.0,73,0.00,,,1.12,,2013-02-26 12:01:00,
2013-02-26 06:11:00,44.0,36.0,29.55,SW,229,11.0,22.0,73,0.00,,,1.12,,2013-02-26 12:11:00,
2013-02-26 06:22:00,44.0,36.0,29.55,SW,215,10.0,21.0,73,0.00,,,1.12,,2013-02-26 12:22:00,
2013-02-26 06:32:00,44.0,36.0,29.55,WSW,240,12.0,19.0,73,0.00,,,1.12,,2013-02-26 12:32:00,
2013-02-26 06:42:00,44.0,36.0,29.55,WSW,240,12.0,19.0,73,0.00,,,1.12,,2013-02-26 12:42:00,
2013-02-26 06:52:00,44.0,36.0,29.56,WSW,248,11.0,23.0,73,0.00,,,1.12,,2013-02-26 12:52:00,
2013-02-26 07:01:00,44.0,36.0,29.57,WSW,244,11.0,22.0,73,0.00,,,1.12,,2013-02-26 13:01:00,
2013-02-26 07:11:00,44.0,36.0,29.57,WSW,244,11.0,22.0,73,0.00,,,1.12,,2013-02-26 13:11:00,
2013-02-26 07:21:00,44.0,36.0,29.58,WSW,240,12.0,20.0,73,0.00,,,1.12,,2013-02-26 13:21:00,
2013-02-26 07:32:00,44.0,36.0,29.59,WSW,242,14.0,24.0,73,0.00,,,1.12,,2013-02-26 13:32:00,
2013-02-26 07:42:00,44.0,36.0,29.59,WSW,242,14.0,24.0,73,0.00,,,1.12,,2013-02-26 13:42:00,
2013-02-26 07:51:00,44.0,36.0,29.59,WSW,237,11.0,19.0,74,0.00,,,1.12,,2013-02-26 13:51:00,
2013-02-26 08:01:00,44.0,37.0,29.60,WSW,240,11.0,18.0,75,0.00,,,1.12,,2013-02-26 14:01:00,
2013-02-26 08:11:00,44.0,37.0,29.60,WSW,240,11.0,18.0,75,0.00,,,1.12,,2013-02-26 14:11:00,
2013-02-26 08:21:00,44.0,37.0,29.61,SW,234,10.0,17.0,76,0.00,,,1.12,,2013-02-26 14:21:00,
2013-02-26 08:32:00,44.0,36.0,29.62,WSW,248,11.0,19.0,73,0.00,,,1.12,,2013-02-26 14:32:00,
2013-02-26 08:42:00,44.0,36.0,29.62,WSW,248,11.0,19.0,73,0.00,,,1.12,,2013-02-26 14:42:00,
2013-02-26 08:52:00,44.0,35.0,29.63,West,275,16.0,22.0,70,0.00,,,1.12,,2013-02-26 14:52:00,
2013-02-26 09:02:00,44.0,36.0,29.64,West,272,8.0,23.0,72,0.00,,,1.12,,2013-02-26 15:02:00,
2013-02-26 09:11:00,44.0,36.0,29.64,West,272,8.0,23.0,72,0.00,,,1.12,,2013-02-26 15:11:00,
2013-02-26 09:21:00,44.0,35.0,29.65,WSW,241,11.0,18.0,70,0.00,,,1.12,,2013-02-26 15:21:00,
2013-02-26 09:32:00,45.0,35.0,29.66,WSW,243,14.0,22.0,69,0.00,,,1.12,,2013-02-26 15:32:00,
2013-02-26 09:42:00,45.0,35.0,29.66,WSW,243,14.0,22.0,69,0.00,,,1.12,,2013-02-26 15:42:00,
2013-02-26 09:52:00,45.0,36.0,29.66,West,275,10.0,25.0,70,0.00,,,1.12,,2013-02-26 15:52:00,
2013-02-26 10:01:00,45.0,35.0,29.67,WSW,248,12.0,28.0,69,0.00,,,1.12,,2013-02-26 16:01:00,
2013-02-26 10:11:00,45.0,35.0,29.67,WSW,248,12.0,28.0,69,0.00,,,1.12,,2013-02-26 16:11:00,
2013-02-26 10:22:00,45.0,35.0,29.67,West,271,13.0,22.0,68,0.00,,,1.12,,2013-02-26 16:22:00,
2013-02-26 10:32:00,45.0,35.0,29.67,West,265,16.0,25.0,68,0.00,,,1.12,,2013-02-26 16:32:00,
2013-02-26 10:42:00,45.0,35.0,29.67,West,265,16.0,25.0,68,0.00,,,1.12,,2013-02-26 16:42:00,
2013-02-26 10:52:00,45.0,35.0,29.68,West,278,15.0,25.0,68,0.00,,,1.12,,2013-02-26 16:52:00,
2013-02-26 11:01:00,45.0,35.0,29.69,West,263,13.0,24.0,67,0.00,,,1.12,,2013-02-26 17:01:00,
2013-02-26 11:11:00,45.0,35.0,29.69,West,263,13.0,24.0,67,0.00,,,1.12,,2013-02-26 17:11:00,
2013-02-26 11:21:00,45.0,35.0,29.69,West,263,11.0,20.0,67,0.00,,,1.12,,2013-02-26 17:21:00,
2013-02-26 11:32:00,45.0,35.0,29.70,West,275,12.0,19.0,68,0.00,,,1.12,,2013-02-26 17:32:00,
2013-02-26 11:41:00,45.0,35.0,29.70,West,275,12.0,19.0,68,0.00,,,1.12,,2013-02-26 17:41:00,
2013-02-26 11:52:00,45.0,35.0,29.70,West,259,11.0,23.0,69,0.00,,,1.12,,2013-02-26 17:52:00,
2013-02-26 12:01:00,45.0,35.0,29.71,West,276,10.0,23.0,68,0.00,,,1.12,,2013-02-26 18:01:00,
2013-02-26 12:12:00,45.0,35.0,29.71,West,276,10.0,23.0,68,0.00,,,1.12,,2013-02-26 18:12:00,
2013-02-26 12:21:00,45.0,34.0,29.72,WSW,258,12.0,17.0,66,0.00,,,1.12,,2013-02-26 18:21:00,
2013-02-26 12:32:00,46.0,36.0,29.72,WNW,284,10.0,20.0,69,0.00,,,1.12,,2013-02-26 18:32:00,
2013-02-26 12:42:00,46.0,36.0,29.72,WNW,284,10.0,20.0,69,0.00,,,1.12,,2013-02-26 18:42:00,
2013-02-26 12:52:00,46.0,36.0,29.72,West,271,12.0,20.0,67,0.00,,,1.12,,2013-02-26 18:52:00,
2013-02-26 13:01:00,46.0,36.0,29.72,West,271,12.0,20.0,67,0.00,,,1.12,,2013-02-26 19:01:00,
2013-02-26 13:11:00,46.0,36.0,29.72,West,271,12.0,20.0,67,0.00,,,1.12,,2013-02-26 19:11:00,
2013-02-26 13:22:00,46.0,36.0,29.72,West,281,10.0,20.0,67,0.00,,,1.12,,2013-02-26 19:22:00,
2013-02-26 13:32:00,47.0,37.0,29.72,West,261,12.0,22.0,67,0.00,,,1.12,,2013-02-26 19:32:00,
2013-02-26 13:42:00,47.0,37.0,29.72,West,261,12.0,22.0,67,0.00,,,1.12,,2013-02-26 19:42:00,
2013-02-26 13:52:00,47.0,36.0,29.72,West,259,14.0,25.0,65,0.00,,,1.12,,2013-02-26 19:52:00,
2013-02-26 14:01:00,47.0,36.0,29.72,WSW,256,12.0,16.0,66,0.00,,,1.12,,2013-02-26 20:01:00,
2013-02-26 14:11:00,47.0,36.0,29.72,WSW,256,12.0,16.0,66,0.00,,,1.12,,2013-02-26 20:11:00,
2013-02-26 14:21:00,47.0,36.0,29.73,West,268,12.0,23.0,66,0.00,,,1.12,,2013-02-26 20:21:00,
2013-02-26 14:32:00,48.0,37.0,29.74,West,278,12.0,18.0,66,0.00,,,1.12,,2013-02-26 20:32:00,
2013-02-26 14:41:00,48.0,37.0,29.74,West,278,12.0,18.0,66,0.00,,,1.12,,2013-02-26 20:41:00,
2013-02-26 14:51:00,48.0,36.0,29.75,West,268,12.0,21.0,64,0.00,,,1.12,,2013-02-26 20:51:00,
2013-02-26 15:01:00,48.0,36.0,29.74,WSW,246,11.0,22.0,64,0.00,,,1.12,,2013-02-26 21:01:00,
2013-02-26 15:11:00,48.0,36.0,29.74,WSW,246,11.0,22.0,64,0.00,,,1.12,,2013-02-26 21:11:00,
2013-02-26 15:21:00,49.0,37.0,29.74,West,262,10.0,20.0,63,0.00,,,1.12,,2013-02-26 21:21:00,
2013-02-26 15:31:00,49.0,37.0,29.74,WNW,299,16.0,24.0,62,0.00,,,1.12,,2013-02-26 21:31:00,
2013-02-26 15:41:00,49.0,37.0,29.74,WNW,299,16.0,24.0,62,0.00,,,1.12,,2013-02-26 21:41:00,
2013-02-26 15:51:00,50.0,38.0,29.74,West,279,15.0,25.0,63,0.00,,,1.06,,2013-02-26 21:51:00,
2013-02-26 16:01:00,50.0,38.0,29.75,NW,310,14.0,21.0,63,0.00,,,1.06,,2013-02-26 22:01:00,
2013-02-26 16:11:00,50.0,38.0,29.75,NW,310,14.0,21.0,63,0.00,,,1.06,,2013-02-26 22:11:00,
2013-02-26 16:21:00,50.0,38.0,29.75,WNW,294,9.0,19.0,63,0.00,,,1.06,,2013-02-26 22:21:00,
2013-02-26 16:32:00,50.0,38.0,29.75,WNW,284,10.0,15.0,62,0.00,,,1.06,,2013-02-26 22:32:00,
2013-02-26 16:41:00,50.0,38.0,29.75,WNW,284,10.0,15.0,62,0.00,,,1.06,,2013-02-26 22:41:00,
2013-02-26 16:51:00,51.0,39.0,29.75,WNW,292,10.0,15.0,63,0.00,,,0.93,,2013-02-26 22:51:00,
2013-02-26 17:01:00,51.0,38.0,29.76,West,273,11.0,18.0,62,0.00,,,0.93,,2013-02-26 23:01:00,
2013-02-26 17:11:00,51.0,38.0,29.76,West,273,11.0,18.0,62,0.00,,,0.93,,2013-02-26 23:11:00,
2013-02-26 17:21:00,51.0,37.0,29.76,WNW,286,10.0,19.0,59,0.00,,,0.93,,2013-02-26 23:21:00,
2013-02-26 17:32:00,51.0,38.0,29.77,WNW,292,11.0,17.0,61,0.00,,,0.93,,2013-02-26 23:32:00,
2013-02-26 17:41:00,51.0,38.0,29.77,WNW,292,11.0,17.0,61,0.00,,,0.93,,2013-02-26 23:41:00,
2013-02-26 17:52:00,51.0,38.0,29.78,WNW,289,7.0,12.0,62,0.00,,,0.92,,2013-02-26 23:52:00,
2013-02-26 18:01:00,51.0,38.0,29.78,WNW,289,7.0,12.0,62,0.00,,,0.92,,2013-02-27 00:01:00,
2013-02-26 18:11:00,51.0,38.0,29.78,WNW,289,7.0,12.0,62,0.00,,,0.92,,2013-02-27 00:11:00,
2013-02-26 18:22:00,50.0,38.0,29.78,WNW,287,4.0,9.0,63,0.00,,,0.92,,2013-02-27 00:22:00,
2013-02-26 18:32:00,49.0,38.0,29.79,West,273,3.0,6.0,65,0.00,,,0.92,,2013-02-27 00:32:00,
2013-02-26 18:42:00,49.0,38.0,29.79,West,273,3.0,6.0,65,0.00,,,0.92,,2013-02-27 00:42:00,
2013-02-26 18:51:00,49.0,38.0,29.80,WNW,286,3.0,6.0,66,0.00,,,0.89,,2013-02-27 00:51:00,
2013-02-26 19:01:00,48.0,38.0,29.80,West,281,2.0,4.0,69,0.00,,,0.89,,2013-02-27 01:01:00,
2013-02-26 19:11:00,48.0,38.0,29.80,West,281,2.0,4.0,69,0.00,,,0.89,,2013-02-27 01:11:00,
2013-02-26 19:22:00,48.0,38.0,29.81,West,278,2.0,4.0,67,0.00,,,0.89,,2013-02-27 01:22:00,
2013-02-26 19:32:00,47.0,37.0,29.82,WNW,282,2.0,4.0,68,0.00,,,0.89,,2013-02-27 01:32:00,
2013-02-26 19:42:00,47.0,37.0,29.82,WNW,282,2.0,4.0,68,0.00,,,0.89,,2013-02-27 01:42:00,
2013-02-26 19:51:00,46.0,39.0,29.82,WNW,284,2.0,4.0,75,0.00,,,0.01,,2013-02-27 01:51:00,
2013-02-26 20:01:00,46.0,38.0,29.83,WNW,289,2.0,4.0,73,0.00,,,0.01,,2013-02-27 02:01:00,
2013-02-26 20:14:00,46.0,38.0,29.83,WNW,289,2.0,4.0,73,0.00,,,0.01,,2013-02-27 02:14:00,
2013-02-26 20:23:00,45.0,38.0,29.84,NW,306,2.0,4.0,77,0.00,,,0.01,,2013-02-27 02:23:00,
2013-02-26 20:32:00,44.0,38.0,29.84,WNW,292,2.0,3.0,79,0.00,,,0.01,,2013-02-27 02:32:00,
2013-02-26 20:42:00,44.0,38.0,29.84,WNW,292,2.0,3.0,79,0.00,,,0.01,,2013-02-27 02:42:00,
2013-02-26 20:52:00,44.0,37.0,29.85,WNW,287,2.0,4.0,77,0.00,,,0.00,,2013-02-27 02:52:00,
2013-02-26 21:02:00,44.0,37.0,29.85,WNW,288,2.0,4.0,76,0.00,,,0.00,,2013-02-27 03:02:00,
2013-02-26 21:11:00,44.0,37.0,29.85,WNW,288,2.0,4.0,76,0.00,,,0.00,,2013-02-27 03:11:00,
2013-02-26 21:22:00,44.0,37.0,29.86,West,281,2.0,3.0,76,0.00,,,0.00,,2013-02-27 03:22:00,
2013-02-26 21:32:00,44.0,37.0,29.86,West,281,2.0,3.0,76,0.00,,,0.00,,2013-02-27 03:32:00,
2013-02-26 21:42:00,44.0,37.0,29.86,West,281,2.0,3.0,76,0.00,,,0.00,,2013-02-27 03:42:00,
2013-02-26 21:51:00,44.0,37.0,29.87,West,281,0.0,3.0,75,0.00,,,0.00,,2013-02-27 03:51:00,
2013-02-26 22:01:00,45.0,37.0,29.88,West,281,0.0,1.0,73,0.00,,,0.00,,2013-02-27 04:01:00,
2013-02-26 22:11:00,45.0,37.0,29.88,West,281,0.0,1.0,73,0.00,,,0.00,,2013-02-27 04:11:00,
2013-02-26 22:21:00,44.0,36.0,29.88,West,281,1.0,2.0,74,0.00,,,0.00,,2013-02-27 04:21:00,
2013-02-26 22:32:00,44.0,38.0,29.88,West,269,0.0,3.0,78,0.00,,,0.00,,2013-02-27 04:32:00,
2013-02-26 22:41:00,44.0,38.0,29.88,West,269,0.0,3.0,78,0.00,,,0.00,,2013-02-27 04:41:00,
2013-02-26 22:51:00,43.0,37.0,29.88,West,269,0.0,0.0,78,0.00,,,0.00,,2013-02-27 04:51:00,
2013-02-26 23:01:00,44.0,38.0,29.88,West,269,0.0,0.0,79,0.00,,,0.00,,2013-02-27 05:01:00,
2013-02-26 23:11:00,44.0,38.0,29.88,West,269,0.0,0.0,79,0.00,,,0.00,,2013-02-27 05:11:00,
2013-02-26 23:22:00,42.0,37.0,29.89,West,269,0.0,0.0,83,0.00,,,0.00,,2013-02-27 05:22:00,
2013-02-26 23:32:00,41.0,37.0,29.89,West,269,0.0,0.0,84,0.00,,,0.00,,2013-02-27 05:32:00,
2013-02-26 23:42:00,41.0,37.0,29.89,West,269,0.0,0.0,84,0.00,,,0.00,,2013-02-27 05:42:00,
2013-02-26 23:52:00,42.0,38.0,29.89,West,269,0.0,0.0,84,0.00,,,0.00,,2013-02-27 05:52:00,